User: anonymous   Login
Location: La Comballaz
(46.3780°N, 7.0817°E)
Time: 18:05:43
(UTC+00:00)
Language:

FO-29 - Orbit

View from above orbital plane
View from above orbital plane
View from above satellite
View from above satellite

Ground track
Ground track

The orbit data is extracted from the following two-line orbital elements,

1 24278U 96046B   21133.47347511 -.00000025  00000-0  12849-4 0  9996
2 24278  98.5684 206.0813 0349371 240.1901 116.4078 13.53103777221514
Epoch (UTC): 13 May 2021 11:21:48
Eccentricity: 0.0349371
inclination: 98.5684°
perigee height: 801 km
apogee height: 1321 km
right ascension of ascending node: 206.0813°
argument of perigee: 240.1901°
revolutions per day: 13.53103777
mean anomaly at epoch: 116.4078°
orbit number at epoch: 22151

The dashed part of the orbit path shows where the satellite is in the earth's shadow,  

DLR